STARLINK-32312, 61711

Orbit data source: Space-Track

STARLINK-32312, 61711 is a payload satellite owned by SpaceX/Seattle (US) in LEO that was launched on Wed, 30 Oct 2024 UTC via an FALCON 9 launch vehicle from the Air Force Eastern Test Range (AFETR). Payloads include a variety of satellites, spacecraft, and rockets equipped with specific instruments for various scientific and technological missions. These include communications satellites like Starlink; space stations such as the ISS; scientific satellites like the Hubble; Earth observation satellites from companies like Planet Labs, Umbra, and HawkEye 360; GPS; miniature CubeSats for education and research; and military/defense satellites.

Loading next visibility...
STARLINK-32312 details
Identifier
61711, 2024-196E
Orbit
LEO
Last TLE update19 hours ago
Origin
Flag of USSpaceX/Seattle (US)
ManufacturerSpaceX/Seattle
MissionOperational spacecraft
Bus & MotorSTARLINK V2M, Unknown motor
Mass730 kg wet, ~700 kg dry
Launch date (UTC)
2024-10-30 (2 months ago)
Launch vehicle
FALCON 9
Launch site
Air Force Eastern Test Range (AFETR)
Object type
Payload
Rocket body
Debris
Shape & HBRUnknown
Radar Cross SectionLarge (>1 m²)

Expand to show TLE details & history

TLE from 19 hours ago
0 STARLINK-32312
1 61711U 24196E   24360.66274600  .00001222  00000-0  40516-4 0  9991
2 61711  53.1629 342.4215 0001196  98.4427 261.6713 15.39621028  9930
Epoch: 2024-12-25T15:54Z
Definitive object data (Epoch: 2024-12-25T15:54:21.254Z)
Latitude-0.00006°
Longitude9.17963°
Altitude448.251 km
Speed7.644 km/s
True Right ascension22h 49m 41s
True Declination0° 00' 00"
Sunlit
Object was in daylight at TLE epoch
Visualization TLE readout
Latitude-29.56458°
Longitude-19.45725°
Altitude456.809 km
Speed7.638 km/s
Apparent Right ascension21h 18m 44s
Apparent Declination-34° 33' 40"
Sunlit
Object is in daylight
Visualization observer readout
Local Sidereal Time09:47:25
Azimuth49.056° ENE
Elevation-82.177°
Doppler factor1
Orbital elements
Apogee altitude448.302 km
Perigee altitude446.67 km
Semi-major axis6,825.623 km
Eccentricity0.0001196
Inclination53.1629°
RAAN342.4215°
Arg. of periapsis98.4427°
True anomaly261.65774°
Mean anomaly261.6713°
Eccentric anomaly261.66452°
Mean motion3.84884 °/min
BSTAR0.000040516
Orbital period93.53 mins
Loading maneuver chart data...
Loading historical data...
Loading historical data...
Loading historical data...
Loading historical data...
Loading historical data...
Loading historical data...
Loading historical data...

STARLINK-32312 Visibility forecast

Observer location: undefined°, undefined

Span
Click to sort rows by Start time (UTC) header in descending order
Start Az.
Max El. time (UTC)
Max El. Az.
Max El.
End time (UTC)
End Az.
5 mins2024-12-27 00:47:14.332Z187.655° SSW2024-12-27 00:49:14.332Z142.832° SSE26.529°2024-12-27 00:52:14.332Z72.597° E
4 mins2024-12-27 02:25:14.332Z283.545° WNW2024-12-27 02:27:14.332Z345.001° N26.504°2024-12-27 02:29:14.332Z27.06° NE
4 mins2024-12-27 07:20:14.332Z346.455° N2024-12-27 07:22:14.332Z44.614° NE25.326°2024-12-27 07:24:14.332Z86.535° E
5 mins2024-12-27 08:57:14.332Z279.827° WNW2024-12-27 08:59:14.332Z222.225° SW28.797°2024-12-27 09:02:14.332Z161.783° S
|